sat.trackr.live / text

‹ back to catalog

STARLINK-31426

NORAD 59249 · 2024-049U

PAYLOAD ACTIVE UNKNOWN

§ Identity

Operator
Country
US
Launch date
2024-03-16
Launch site
AFETR
Launch vehicle
Mass (kg)
RCS (m²)

Purposes: comms

External: N2YO · Heavens-Above · Gunter

§ Orbital elements

Epoch: 2026-09-19T00:53:09.125088Z

Period
94.27 min
Inclination
43.0037°
Eccentricity
0.0001394
Mean motion
15.27571645 rev/d
Perigee alt
482.1 km
Apogee alt
484.0 km
Semi-major
6,861.2 km
B*
-7.0794e-5
RAAN
131.8091°
Arg perigee
266.9269°
Mean anomaly
93.1423°
Rev number
14,196

§ Raw data

STARLINK-314261 59249U 24049U   26262.03691117 -.00002209  00000+0 -70794-4 0  99992 59249  43.0037 131.8091 0001394 266.9269  93.1423 15.27571645141964

JSON: /api/v1/satellites/59249 · /tle

For live sub-satellite position, see the globe view (requires WebGL).

§ Visibility from observer

Set your observer location to see the next 7 days of passes ≥ 10°. The values pass through the URL so the page stays shareable.

No JS? Fill the form by hand. The geolocation button needs JavaScript.